[[{"header":{"parameterUnit":"m.s-1","parameterCategory":1,"la1":30.2991,"la2":30.254,"lo1":-89.0895,"lo2":-89.0444,"dy":0.0017,"dx":0.0017,"nx":28,"ny":28,"refTime":"2024-07-20T03:00:00:Z","depth":0,"parameterNumber":2,"parameterNumberName":"U-component_of_WINDS"},"data":[0,0,0,0,0,0,0,0,0,0,0,0,0,0,0,0,0,0,0,0,0,0,0,0,0,0,0,0,0,0,0,0,0,0,0,0,0,0,0,0,0,0,0,0,0,0,0,0,0,0,0,0,0,0,0,0,0,0,2.9462,2.9462,0,2.9418,2.9418,2.9417,2.9298,2.9296,2.9293,2.9291,2.9246,2.9247,2.9248,0,0,0,0,0,0,0,0,0,0,0,0,0,2.9441,2.9442,2.9462,2.9462,2.9461,2.9418,2.9418,2.9417,2.9299,2.9295,2.9292,2.9289,2.9245,2.9247,2.9248,0,0,0,0,0,0,0,0,0,0,0,0,0,2.9429,2.9442,2.9462,2.9397,2.9391,2.9418,2.9418,2.9417,2.9299,2.9295,2.9292,2.9288,2.9245,2.9246,2.9248,2.9336,0,0,2.9254,2.9254,0,0,0,0,0,0,0,0,2.943,2.943,2.9407,2.9401,2.9394,2.936,2.9393,2.939,2.93,2.9334,2.9291,2.9286,2.9287,2.9285,2.9285,2.9334,2.9332,2.9254,2.9255,2.9256,2.9256,0,0,0,0,0,0,0,2.9431,2.9431,2.9445,2.9407,2.9399,2.9369,2.9363,2.9392,2.9332,2.9331,2.9322,2.9318,2.9282,2.9284,2.9283,2.9331,2.9254,2.9255,2.9256,2.9257,2.9444,2.9448,0,0,0,0,0,0,2.9441,2.9432,2.9446,2.9443,2.9403,2.9372,2.9366,2.9375,2.9332,2.9321,2.9322,2.9313,2.9282,2.9281,2.9281,2.9377,2.9256,2.9257,2.9258,2.944,2.9445,2.9449,0,0,0,0,0,0,2.9441,2.9443,2.9448,2.9435,2.9434,2.9377,2.9388,2.9376,2.9377,2.9325,2.9313,2.9334,2.9279,2.9278,2.9322,2.9374,2.9258,2.926,2.9436,2.9442,2.9447,2.9572,0,0,0,0,0,0,2.9441,2.9444,2.9478,2.9437,2.9435,2.9491,2.9391,2.9378,2.938,2.9368,2.9333,2.9324,2.9276,2.932,2.9324,2.9374,2.9261,2.9431,2.9438,2.9445,2.9563,2.9582,2.9597,0,0,0,0,0,2.9441,2.9516,2.948,2.9483,2.9476,2.9494,2.9493,2.9437,2.9385,2.9417,2.9383,2.9325,2.9368,2.9325,2.9329,2.938,2.9427,2.9436,2.9445,2.9555,2.9578,2.9597,0,0,0,0,0,0,2.9566,2.951,2.9469,2.9534,2.952,2.9474,2.9514,2.9463,2.9463,2.9452,2.9382,2.9375,2.9427,2.9408,2.9362,2.946,2.9388,2.9398,2.9471,2.9492,2.9508,2.9511,2.9263,0,0,0,0,0,2.9601,2.9621,2.9571,2.9633,2.9627,2.9572,2.9578,2.9535,2.9518,2.9511,2.948,2.9465,2.9474,2.9482,2.9489,2.956,2.9548,2.9597,2.9614,2.9628,2.9637,2.9669,2.9688,2.9478,2.9478,2.9478,0,0,2.9674,2.9645,2.9663,2.9657,2.9641,2.9661,2.9568,2.9595,2.9609,2.9515,2.9553,2.953,2.9508,2.9565,2.9588,2.9551,2.9693,2.964,2.9651,2.9652,2.968,2.97,2.9718,2.9484,2.9483,2.9482,0,0,2.9816,2.9798,2.9845,2.983,2.9806,2.9768,2.978,2.9741,2.9722,2.9759,2.9687,2.9703,2.9722,2.9708,2.9703,2.9836,2.978,2.984,2.9929,2.996,2.9977,2.9991,3.0035,3.0052,2.9849,2.9849,2.985,0,2.9909,2.9938,2.9876,2.9906,2.9904,2.9819,2.9865,2.9853,2.9833,2.9833,2.9791,2.981,2.979,2.9839,2.9871,2.9872,2.988,2.9843,2.998,2.9993,3.0006,3.0046,3.0063,2.9857,2.9856,2.9855,2.9854,0,3.0051,3.0072,3.0113,3.0094,3.0096,3.0135,3.0077,3.0087,3.0044,3.001,3.0046,3.0018,3.0015,3.0024,2.9983,3.0067,3.0044,2.9992,2.9917,3.0034,3.007,3.0086,2.9867,2.9864,2.9862,2.986,0,0,3.0272,3.0216,3.0231,3.0219,3.0185,3.0199,3.0232,3.0228,3.0236,3.0225,3.0248,3.0265,3.0215,3.021,3.0166,3.0194,3.0296,3.0138,3.0136,3.0165,3.0382,3.0419,3.0438,3.026,3.0263,3.0265,3.0382,0,3.0403,3.0456,3.0399,3.0463,3.0479,3.0397,3.0425,3.0406,3.0375,3.0383,3.0348,3.0359,3.0295,3.029,3.0315,3.0279,3.0338,3.027,3.0279,3.028,3.0284,3.0458,3.0498,3.0611,3.0397,3.0399,3.0401,0,3.0564,3.0557,3.0622,3.0579,3.0584,3.061,3.0599,3.0609,3.0585,3.0559,3.0552,3.0498,3.0525,3.0454,3.0488,3.0442,3.0443,3.0425,3.0428,3.0425,3.0346,3.0456,3.0646,3.0662,3.0424,3.0422,3.0421,0,3.0713,3.0721,3.0759,3.0752,3.0705,3.0724,3.0705,3.0677,3.0677,3.0668,3.0666,3.0661,3.0657,3.0654,3.0599,3.0553,3.0638,3.0564,3.0616,3.0617,3.0636,3.0635,3.0825,3.0642,3.0642,3.0641,3.0641,0,3.0864,3.0906,3.0825,3.0849,3.0892,3.0826,3.087,3.0843,3.0818,3.0833,3.0763,3.0778,3.0706,3.0714,3.0671,3.0704,3.0704,3.0682,3.067,3.0687,3.0689,3.0684,3.0674,3.0646,3.0645,3.0644,3.0643,0,3.1038,3.0986,3.1021,3.0972,3.0961,3.0995,3.0952,3.097,3.0933,3.0953,3.0954,3.0896,3.09,3.0846,3.0841,3.0811,3.0862,3.0838,3.087,3.0861,3.0915,3.0909,3.1106,3.1127,3.0934,3.0936,3.0937,0,3.1136,3.1166,3.1119,3.1123,3.1107,3.1117,3.1115,3.1051,3.1052,3.1024,3.1045,3.1044,3.1039,3.1049,3.1006,3.1,3.0973,3.1042,3.0972,3.0987,3.097,3.0967,3.0968,3.1057,3.1059,3.1061,3.1063,0,3.1314,3.1286,3.1287,3.1277,3.1277,3.1267,3.1252,3.126,3.1189,3.1194,3.1197,3.1193,3.1185,3.1184,3.1169,3.1148,3.1093,3.1085,3.1096,3.1113,3.1129,3.1117,3.0907,3.1081,3.1079,3.1078,3.1077,3.1076,3.1451,3.1471,3.144,3.1442,3.1424,3.1411,3.1424,3.1388,3.1389,3.1377,3.1339,3.1348,3.1319,3.1293,3.1277,3.1282,3.1247,3.1265,3.1269,3.1273,3.1281,3.113,3.1279,3.1279,3.1278,3.1278,3.1277,0,3.1622,3.1597,3.16,3.158,3.158,3.1528,3.1508,3.1511,3.152,3.1497,3.1493,3.1495,3.1492,3.1447,3.1438,3.145,3.1425,3.145,3.1447,3.1442,3.1314,3.1304,3.1471,3.1471,3.1471,3.1471,3.1471,3.1471,3.1711,3.1742,3.171,3.173,3.1704,3.1712,3.1704,3.169,3.1671,3.1676,3.1673,3.1644,3.1611,3.1599,3.1593,3.1579,3.1578,3.1612,3.159,3.1471,3.1452,3.1434,3.1423,3.1613,3.1613,3.1716,3.1717,3.1718]},{"header":{"parameterUnit":"m.s-1","parameterCategory":1,"la1":30.2991,"la2":30.254,"lo1":-89.0895,"lo2":-89.0444,"dy":0.0017,"dx":0.0017,"nx":28,"ny":28,"refTime":"2024-07-20T03:00:00:Z","depth":0,"parameterNumber":3,"parameterNumberName":"V-component_of_WINDS"},"data":[0,0,0,0,0,0,0,0,0,0,0,0,0,0,0,0,0,0,0,0,0,0,0,0,0,0,0,0,0,0,0,0,0,0,0,0,0,0,0,0,0,0,0,0,0,0,0,0,0,0,0,0,0,0,0,0,0,0,4.2902,4.2903,0,4.3014,4.3015,4.3016,4.302,4.3019,4.3017,4.3016,4.3125,4.3129,4.3133,0,0,0,0,0,0,0,0,0,0,0,0,0,4.2683,4.2687,4.2901,4.2903,4.2904,4.3014,4.3015,4.3017,4.302,4.3019,4.3017,4.3015,4.3124,4.3129,4.3134,0,0,0,0,0,0,0,0,0,0,0,0,0,4.2785,4.2688,4.2901,4.2919,4.2922,4.3013,4.3015,4.3017,4.3021,4.3019,4.3017,4.3015,4.3122,4.3128,4.3134,4.3213,0,0,4.3153,4.3156,0,0,0,0,0,0,0,0,4.2779,4.2793,4.2915,4.2918,4.2922,4.3001,4.2978,4.3083,4.3021,4.2983,4.3016,4.3014,4.3085,4.3094,4.312,4.3218,4.3223,4.3154,4.3158,4.316,4.3162,0,0,0,0,0,0,0,4.2772,4.2788,4.2946,4.2917,4.2921,4.292,4.2932,4.2998,4.3044,4.2986,4.2987,4.3,4.3086,4.3114,4.3122,4.3225,4.3154,4.3159,4.3163,4.3166,4.3389,4.3391,0,0,0,0,0,0,4.2762,4.2782,4.2942,4.2949,4.2844,4.2925,4.2939,4.2977,4.3043,4.3051,4.3002,4.3,4.3104,4.3115,4.3126,4.322,4.316,4.3166,4.317,4.3387,4.339,4.3392,0,0,0,0,0,0,4.2758,4.2777,4.2938,4.2866,4.2886,4.2931,4.2974,4.2981,4.3008,4.3055,4.3063,4.3022,4.3103,4.3117,4.3191,4.3224,4.3169,4.3175,4.3385,4.3388,4.3391,4.341,0,0,0,0,0,0,4.2751,4.2775,4.2807,4.2867,4.289,4.3003,4.2977,4.2984,4.3019,4.3018,4.3076,4.3083,4.3102,4.3182,4.3197,4.3231,4.318,4.3382,4.3386,4.339,4.3406,4.3413,4.3419,0,0,0,0,0,4.2743,4.2807,4.2809,4.2828,4.2932,4.3005,4.3018,4.3041,4.3022,4.3053,4.3083,4.3081,4.3218,4.3189,4.3207,4.3243,4.338,4.3385,4.339,4.3403,4.3412,4.3419,0,0,0,0,0,0,4.2749,4.2816,4.2818,4.2903,4.2949,4.3006,4.3046,4.3049,4.3099,4.3096,4.312,4.3132,4.3205,4.3232,4.3198,4.3321,4.3296,4.3305,4.3301,4.3309,4.3316,4.3307,4.3185,0,0,0,0,0,4.2761,4.2817,4.2871,4.2941,4.2964,4.3001,4.3034,4.3047,4.3094,4.3113,4.3148,4.3192,4.3244,4.3279,4.333,4.3411,4.3421,4.3444,4.345,4.3456,4.3462,4.3503,4.3513,4.3409,4.3409,4.3408,0,0,4.2784,4.2827,4.2861,4.2943,4.298,4.3035,4.3017,4.3077,4.3117,4.3121,4.3193,4.322,4.327,4.3347,4.3383,4.3372,4.3493,4.3462,4.3466,4.3469,4.3509,4.3519,4.3528,4.3412,4.3411,4.3411,0,0,4.2855,4.2895,4.2956,4.2993,4.3049,4.3073,4.3088,4.3144,4.3163,4.3236,4.3239,4.3286,4.3377,4.3412,4.3442,4.3524,4.3522,4.3539,4.3572,4.3612,4.362,4.3628,4.3654,4.3663,4.3546,4.3546,4.3546,0,4.2877,4.2962,4.2987,4.3046,4.308,4.3089,4.3149,4.3183,4.3252,4.3274,4.3262,4.3374,4.3409,4.3492,4.3512,4.3537,4.3552,4.3532,4.3618,4.3625,4.3632,4.3658,4.3668,4.3548,4.3548,4.3547,4.3547,0,4.2984,4.3043,4.3085,4.3153,4.3192,4.3252,4.3283,4.3319,4.3329,4.3353,4.3425,4.3467,4.3525,4.3546,4.3556,4.3631,4.3621,4.3613,4.3588,4.3643,4.3667,4.3677,4.355,4.3549,4.3549,4.3549,0,0,4.3062,4.3142,4.3156,4.3186,4.3248,4.3292,4.3351,4.3409,4.3438,4.3486,4.3533,4.3609,4.3601,4.3634,4.3648,4.3683,4.3741,4.367,4.3671,4.3679,4.3822,4.3826,4.3837,4.3742,4.3744,4.3745,4.3817,0,4.3137,4.3243,4.3266,4.3357,4.3409,4.3417,4.3467,4.3509,4.3533,4.3579,4.3604,4.3657,4.3644,4.3663,4.3699,4.3727,4.377,4.3722,4.3783,4.3785,4.3768,4.3851,4.3856,4.3922,4.3827,4.3828,4.383,0,4.3239,4.3289,4.3385,4.3438,4.3461,4.3506,4.356,4.3605,4.3651,4.3666,4.3702,4.3712,4.3769,4.3743,4.3821,4.3788,4.3814,4.3831,4.3834,4.3839,4.3809,4.3855,4.3944,4.3952,4.3845,4.3844,4.3843,0,4.3282,4.3374,4.3442,4.3468,4.3532,4.3562,4.359,4.3635,4.3667,4.3714,4.3735,4.3787,4.3815,4.3854,4.3876,4.3855,4.3951,4.3928,4.3962,4.3961,4.398,4.3979,4.4072,4.4001,4.4001,4.4001,4.4001,0,4.3363,4.3421,4.3462,4.3504,4.3568,4.3593,4.3654,4.3681,4.372,4.3765,4.3775,4.3816,4.3844,4.3888,4.3906,4.3966,4.3979,4.399,4.3994,4.3988,4.3986,4.4004,4.3999,4.4004,4.4003,4.4003,4.4002,0,4.3421,4.3452,4.3527,4.3581,4.3596,4.364,4.3685,4.3724,4.3748,4.3805,4.3819,4.3856,4.3909,4.3935,4.4,4.4012,4.4079,4.4081,4.4063,4.4064,4.4096,4.4092,4.4203,4.4217,4.4139,4.414,4.414,0,4.347,4.3514,4.3573,4.3604,4.3633,4.3684,4.3717,4.3743,4.3777,4.3832,4.3864,4.3917,4.3961,4.4045,4.4076,4.4125,4.4126,4.4161,4.4133,4.4126,4.4123,4.4119,4.4123,4.4166,4.4166,4.4167,4.4168,0,4.3551,4.3564,4.3613,4.3667,4.3707,4.375,4.3792,4.3817,4.3849,4.3886,4.3941,4.3975,4.4042,4.4094,4.4145,4.417,4.4173,4.4176,4.4186,4.418,4.4167,4.4172,4.4074,4.4173,4.4173,4.4172,4.4172,4.4172,4.3604,4.3643,4.369,4.3743,4.3778,4.3817,4.3856,4.3885,4.3931,4.3989,4.4,4.4057,4.4099,4.4169,4.4196,4.4239,4.4231,4.4246,4.425,4.4253,4.4253,4.4162,4.4249,4.4249,4.4249,4.4248,4.4248,0,4.3683,4.3714,4.3763,4.3822,4.3863,4.3865,4.3911,4.3945,4.3995,4.4036,4.4079,4.414,4.419,4.4225,4.4275,4.4302,4.4304,4.4314,4.4311,4.4316,4.4259,4.4244,4.4311,4.4311,4.4311,4.4311,4.4311,4.4311,4.3729,4.3794,4.3812,4.3893,4.3922,4.398,4.4005,4.404,4.4072,4.4141,4.4183,4.4206,4.4243,4.4295,4.434,4.4349,4.4365,4.4375,4.4383,4.4328,4.4321,4.4314,4.43,4.4379,4.4379,4.4436,4.4437,4.4437]}]]